User: anonymous   Login
Location: Unspecified
(48.1170°N, 0.0000°E)
Time: 16:10:56
(UTC+00:00)
Language:

NANOSAT C BR1 - Orbit

View from above orbital plane
View from above orbital plane
View from above satellite
View from above satellite

Ground track
Ground track

The orbit data is extracted from the following two-line orbital elements,

1 40024U 14033Q   19257.75387189  .00000209  00000-0  27621-4 0  9996
2 40024  97.9114 179.8330 0013385 119.6660 240.5891 14.89885600284555
Epoch (UTC): 14 September 2019 18:05:34
Eccentricity: 0.0013385
inclination: 97.9114°
perigee height: 589 km
apogee height: 607 km
right ascension of ascending node: 179.8330°
argument of perigee: 119.6660°
revolutions per day: 14.89885600
mean anomaly at epoch: 240.5891°
orbit number at epoch: 28455

The dashed part of the orbit path shows where the satellite is in the earth's shadow,  

DLR